Regional Weather Roundup
Issued by NWS

Home | Current Version | Previous Version | Text Only | Print | Product List | Glossary On
Versions: 1 2 3 4 5 6 7 8 9 10 11 12 13 14 15 16 17 18 19 20 21 22 23 24 25 26 27 28 29 30 31 32 33 34 35 36 37 38 39 40 41 42 43 44 45 46 47 48 49 50
000
ASUS42 KFFC 230510
RWRGA
WEATHER ROUNDUP FOR GEORGIA
NATIONAL WEATHER SERVICE PEACHTREE CITY GA
1200 AM EST THU FEB 23 2017

NOTE: "FAIR" INDICATES FEW OR NO CLOUDS BELOW 12,000 FEET WITH NO
SIGNIFICANT WEATHER AND/OR OBSTRUCTIONS TO VISIBILITY.

* = USE WITH CAUTION. THE STATIONS MARKED WITH AN ASTERISK MAY NOT
REPORT WEATHER SUCH AS PRECIPITATION, FOG, OR THUNDER AND ARE NOT
QUALITY CONTROLLED BY NWS.

THE REMARK "TC" DENOTES TEMPERATURE READING IN DEGREES CELSIUS.

GAZ001>058-230600-
NORTH GEORGIA

CITY           SKY/WX    TMP DP  RH WIND       PRES   REMARKS
ATLANTA        PTCLDY    58  57  97 E10       29.88F
ATHENS         MOCLDY    59  56  89 NE6       29.90S
CHAMBLEE       CLOUDY    57  54  89 E3        29.89F
PEACHTREE CITY MOCLDY    61  58  90 E6        29.88F
ROME           CLEAR     53  51  93 CALM      29.89S
WEST ATLANTA   PTCLDY    56  53  90 NE5       29.88F
GAINESVILLE    CLEAR     57  55  93 NE6       29.92F
CARTERSVILLE   PTCLDY    57  54  89 E5        29.89S


CITY           SKY/WX    TMP DP  RH WIND       PRES   REMARKS
DALTON*        CLEAR     52  52 100 CALM      29.90S
MARIETTA       PTCLDY    56  55  94 NE3       29.89S
CANTON*        CLEAR     55  52  88 CALM      29.91S
$$

GAZ059>098-102>109-230600-
CENTRAL GEORGIA

CITY           SKY/WX    TMP DP  RH WIND       PRES   REMARKS
AUGUSTA-BUSH   PTCLDY    61  57  87 E3        29.86F
AUGUSTA-DANIEL MOCLDY    64  56  75 NE5       29.88S
COLUMBUS       CLOUDY    62  58  86 E7        29.83F
MACON          PTCLDY    60  58  92 N6        29.86R
ROBINS AFB     PTCLDY    62  60  93 N5        29.85S


CITY           SKY/WX    TMP DP  RH WIND       PRES   REMARKS
LAGRANGE*      PTCLDY    62  62 100 CALM      29.85F
SYLVANIA*      CLOUDY   N/A N/A N/A E5        29.86S
MILLEDGEVILLE* PTCLDY    61  61 100 CALM      29.88R
$$

GAZ099>101-110>166-230600-
SOUTH GEORGIA

CITY           SKY/WX    TMP DP  RH WIND       PRES   REMARKS
SAVANNAH       CLOUDY    62  59  90 NE7       29.83F
VALDOSTA       MOCLDY    62  61  96 N9        29.78R
ALMA           MOCLDY    63  63 100 NE3       29.81F
ST SIMONS      CLOUDY    66  63  90 NE9       29.78F
FT STEWART     CLOUDY    62  61  96 CALM      29.80F
ALBANY         CLOUDY    66  62  87 E10       29.82F
HUNTER AFB     CLOUDY    64  64 100 CALM      29.80F
MOODY AFB      CLOUDY    63  61  94 NE9       29.78S
BRUNSWICK      CLOUDY    64  64 100 NE8       29.80S


CITY           SKY/WX    TMP DP  RH WIND       PRES   REMARKS
BAINBRIDGE*    CLEAR     61  59  94 E6        29.79S
MOULTRIE*      MOCLDY    64  61  88 NE3       29.80F
VIDALIA*       CLOUDY    61  61 100 E5        29.83F
WAYCROSS*      MOCLDY    65  65 100 NE8       29.80R
DOUGLAS*       CLOUDY    63  61  94 NE8       29.82F
$$



USA.gov is the U.S. government's official web portal to all federal, state and local government web resources and services.